Moncks Corner, SC

5:46 PM EST on November 15, 2019 (GMT -0500)
Moncks Corner

Weather History for KMKS - October, 2019

Change the Weather History Date:

Tuesday, October 22, 2019

  Actual Average (WUND) Record (WUND)
Temperature  
Mean Temperature 70 °F -  
Max Temperature 84 °F - - (-1)
Min Temperature 57 °F - - (-1)
Cooling Degree Days 6    
Growing Degree Days 20 (Base 50)    
Moisture  
Dew Point 68 °F    
Average Humidity 85    
Maximum Humidity 100    
Minimum Humidity 62    
Precipitation  
Precipitation 0.00 in - - ()
Sea Level Pressure  
Sea Level Pressure 29.92 in    
Wind  
Wind Speed 3 mph ()    
Max Wind Speed 14 mph    
Max Gust Speed 21 mph    
Visibility 9.4 miles    
Events Rain    
Averages and records for this station are not official NWS values.
T = Trace of Precipitation, MM = Missing Value Source: Averaged Metar Reports

Daily Weather History Graph

Daily Weather History Graph

Search for Another Location

Airport or City:

Astronomy

Oct. 22, 2019 Rise Set
Actual Time 7:29 AM EDT 6:38 PM EDT
Civil Twilight 7:04 AM EDT 7:04 PM EDT
Nautical Twilight 6:35 AM EDT 7:32 PM EDT
Astronomical Twilight 6:07 AM EDT 8:01 PM EDT
Moon 1:03 AM EDT (10/22) 3:23 PM EDT (10/22)
Length of Visible Light 11h 59m
Length of Day
11h 09m
Last Quarter, 37% of the Moon is Illuminated
Oct 22
Last Quarter
Oct 27
New
Nov 4
First Quarter
Nov 12
Full
Nov 19
Last Quarter

Hourly Weather History & Observations

Time (EDT) Temp. Heat Index Dew Point Humidity Pressure Visibility Wind Dir Wind Speed Gust Speed Precip Events Conditions
12:15 AM 68.0 °F - 66.2 °F 94% 30.01 in 10.0 mi East 3.5 mph - N/A   Overcast
12:35 AM 68.0 °F - 66.2 °F 94% 30.01 in 10.0 mi Calm Calm - N/A   Overcast
12:55 AM 68.0 °F - 66.2 °F 94% 30.00 in 10.0 mi Calm Calm - N/A   Overcast
1:15 AM 68.0 °F - 66.2 °F 94% 30.00 in 10.0 mi Calm Calm - N/A   Overcast
1:35 AM 68.0 °F - 66.2 °F 94% 30.00 in 10.0 mi Calm Calm - N/A   Overcast
1:55 AM 68.0 °F - 66.2 °F 94% 30.00 in 10.0 mi Calm Calm - N/A   Overcast
2:15 AM 68.0 °F - 66.2 °F 94% 29.99 in 10.0 mi Calm Calm - N/A   Overcast
2:35 AM 68.0 °F - 68.0 °F 100% 29.98 in 10.0 mi East 3.5 mph - N/A   Overcast
2:55 AM 68.0 °F - 68.0 °F 100% 29.98 in 10.0 mi ESE 3.5 mph - N/A   Overcast
3:15 AM 69.8 °F - 68.0 °F 94% 29.97 in 10.0 mi Calm Calm - N/A   Overcast
3:35 AM 68.0 °F - 68.0 °F 100% 29.96 in 10.0 mi Calm Calm - N/A   Overcast
3:55 AM 68.0 °F - 68.0 °F 100% 29.95 in 10.0 mi ESE 4.6 mph - N/A   Mostly Cloudy
4:15 AM 68.0 °F - 68.0 °F 100% 29.94 in 10.0 mi SE 3.5 mph - N/A   Mostly Cloudy
4:35 AM 68.0 °F - 68.0 °F 100% 29.93 in 10.0 mi Calm Calm - N/A   Scattered Clouds
4:55 AM 68.0 °F - 68.0 °F 100% 29.93 in 7.0 mi SE 3.5 mph - N/A   Clear
5:15 AM 68.0 °F - 68.0 °F 100% 29.92 in 10.0 mi SE 4.6 mph - N/A   Scattered Clouds
5:35 AM 69.8 °F - 69.8 °F 100% 29.92 in 7.0 mi SSE 3.5 mph - N/A   Clear
5:55 AM 69.8 °F - 69.8 °F 100% 29.92 in 10.0 mi SSE 3.5 mph - N/A   Scattered Clouds
6:15 AM 69.8 °F - 69.8 °F 100% 29.90 in 10.0 mi SSE 3.5 mph - N/A   Clear
6:35 AM 69.8 °F - 69.8 °F 100% 29.90 in 7.0 mi SSE 4.6 mph - N/A   Clear
7:15 AM 69.8 °F - 69.8 °F 100% 29.90 in 7.0 mi SSE 4.6 mph - N/A   Overcast
7:35 AM 69.8 °F - 69.8 °F 100% 29.90 in 10.0 mi South 4.6 mph - N/A   Light Drizzle
7:55 AM 69.8 °F - 69.8 °F 100% 29.90 in 10.0 mi SSE 3.5 mph - N/A   Overcast
8:15 AM 71.6 °F - 71.6 °F 100% 29.90 in 7.0 mi Calm Calm - N/A   Overcast
8:35 AM 71.6 °F - 71.6 °F 100% 29.91 in 10.0 mi Calm Calm - N/A   Overcast
8:55 AM 71.6 °F - 71.6 °F 100% 29.92 in 10.0 mi Calm Calm - N/A   Overcast
9:15 AM 71.6 °F - 71.6 °F 100% 29.93 in 10.0 mi Calm Calm - N/A   Overcast
9:35 AM 73.4 °F - 71.6 °F 94% 29.93 in 10.0 mi Calm Calm - N/A   Overcast
9:55 AM 73.4 °F - 71.6 °F 94% 29.93 in 10.0 mi Calm Calm - N/A   Overcast
10:15 AM 75.2 °F - 73.4 °F 94% 29.93 in 10.0 mi SSW 4.6 mph - N/A   Overcast
10:35 AM 75.2 °F - 73.4 °F 94% 29.93 in 10.0 mi SW 6.9 mph - N/A   Overcast
10:55 AM 75.2 °F - 73.4 °F 94% 29.93 in 7.0 mi SW 5.8 mph - N/A   Overcast
11:15 AM 77.0 °F - 73.4 °F 89% 29.92 in 7.0 mi SW 10.4 mph - N/A   Overcast
11:35 AM 78.8 °F - 73.4 °F 83% 29.92 in 10.0 mi SW 8.1 mph - N/A   Overcast
11:55 AM 77.0 °F - 73.4 °F 89% 29.91 in 7.0 mi WSW 9.2 mph - N/A Rain Light Rain
12:15 PM 78.8 °F - 73.4 °F 83% 29.90 in 10.0 mi SW 8.1 mph - N/A   Mostly Cloudy
12:35 PM 80.6 °F 85.4 °F 73.4 °F 79% 29.89 in 7.0 mi WSW 9.2 mph 17.3 mph N/A   Overcast
12:55 PM 82.4 °F 88.2 °F 73.4 °F 74% 29.89 in 10.0 mi WSW 11.5 mph - N/A   Mostly Cloudy
1:15 PM 82.4 °F 87.2 °F 71.6 °F 70% 29.88 in 7.0 mi SW 13.8 mph 20.7 mph N/A   Mostly Cloudy
1:35 PM 82.4 °F 87.2 °F 71.6 °F 70% 29.87 in 7.0 mi SW 11.5 mph - N/A   Scattered Clouds
1:55 PM 84.2 °F 89.6 °F 71.6 °F 66% 29.85 in 10.0 mi WSW 8.1 mph 17.3 mph N/A   Mostly Cloudy
2:15 PM 84.2 °F 89.6 °F 71.6 °F 66% 29.83 in 10.0 mi WSW 8.1 mph - N/A   Overcast
2:35 PM 82.4 °F 87.2 °F 71.6 °F 70% 29.83 in 7.0 mi West 4.6 mph - N/A   Overcast
2:55 PM 84.2 °F 89.6 °F 71.6 °F 66% 29.83 in 10.0 mi WSW 5.8 mph - N/A   Mostly Cloudy
3:15 PM 82.4 °F 86.3 °F 69.8 °F 66% 29.83 in 10.0 mi WSW 9.2 mph - N/A   Mostly Cloudy
3:35 PM 84.2 °F 88.4 °F 69.8 °F 62% 29.83 in 7.0 mi WSW 10.4 mph - N/A   Scattered Clouds
3:55 PM 82.4 °F 85.4 °F 68.0 °F 62% 29.84 in 10.0 mi WSW 5.8 mph 17.3 mph N/A   Scattered Clouds
4:15 PM 82.4 °F 86.3 °F 69.8 °F 66% 29.84 in 10.0 mi SW 5.8 mph - N/A   Clear
4:35 PM 80.6 °F 83.9 °F 69.8 °F 70% 29.84 in 10.0 mi WSW 5.8 mph - N/A   Scattered Clouds
4:55 PM 80.6 °F 83.9 °F 69.8 °F 70% 29.85 in 10.0 mi WSW 5.8 mph - N/A   Scattered Clouds
5:15 PM 80.6 °F 83.9 °F 69.8 °F 70% 29.85 in 10.0 mi WSW 6.9 mph - N/A   Scattered Clouds
5:35 PM 80.6 °F 83.9 °F 69.8 °F 70% 29.84 in 10.0 mi WSW 4.6 mph - N/A   Scattered Clouds
5:55 PM 78.8 °F - 69.8 °F 74% 29.84 in 10.0 mi West 3.5 mph - N/A   Clear
6:15 PM 78.8 °F - 69.8 °F 74% 29.85 in 10.0 mi WSW 3.5 mph - N/A   Clear
6:35 PM 77.0 °F - 68.0 °F 74% 29.85 in 10.0 mi WSW 3.5 mph - N/A   Clear
6:55 PM 75.2 °F - 68.0 °F 78% 29.87 in 10.0 mi WSW 3.5 mph - N/A   Clear
7:15 PM 73.4 °F - 68.0 °F 83% 29.87 in 10.0 mi Calm Calm - N/A   Clear
7:35 PM 73.4 °F - 68.0 °F 83% 29.89 in 10.0 mi WSW 3.5 mph - N/A   Clear
7:55 PM 73.4 °F - 66.2 °F 78% 29.90 in 10.0 mi Calm Calm - N/A   Clear
8:15 PM 71.6 °F - 62.6 °F 73% 29.92 in 10.0 mi Calm Calm - N/A   Clear
8:35 PM 69.8 °F - 60.8 °F 73% 29.92 in 10.0 mi Calm Calm - N/A   Clear
8:55 PM 68.0 °F - 59.0 °F 73% 29.93 in 10.0 mi Calm Calm - N/A   Clear
9:15 PM 66.2 °F - 60.8 °F 83% 29.94 in 10.0 mi Calm Calm - N/A   Clear
9:35 PM 64.4 °F - 59.0 °F 83% 29.95 in 10.0 mi Calm Calm - N/A   Clear
10:15 PM 62.6 °F - 59.0 °F 88% 29.97 in 10.0 mi Calm Calm - N/A   Clear
10:35 PM 64.4 °F - 53.6 °F 68% 29.98 in 7.0 mi Calm Calm - N/A   Clear
10:55 PM 62.6 °F - 55.4 °F 77% 29.98 in 10.0 mi Calm Calm - N/A   Clear
11:15 PM 59.0 °F - 57.2 °F 94% 29.98 in 10.0 mi Calm Calm - N/A   Clear
11:35 PM 57.2 °F - 55.4 °F 94% 29.98 in 7.0 mi Calm Calm - N/A   Clear
11:55 PM 60.8 °F - 50.0 °F 68% 29.98 in 10.0 mi Calm Calm - N/A   Clear